GW2087 Weather Reports


time (UTC)temp
C
wind
direction
speed
KPH
gust
KPH
rain 1hr
cm
rain 24hr
cm
rain mn
cm
humidity
%
barometer
mb
20260509213040 18 205 4.8 4.8 0.00 0.56 0.56 60 1006.7
20260509212537 17 234 1.6 3.2 0.00 0.56 0.56 60 1006.7
20260509212034 18 205 9.7 11.3 0.00 0.56 0.56 59 1006.7
20260509211530 18 203 4.8 4.8 0.00 0.56 0.56 60 1006.7
20260509211027 18 233 11.3 16.1 0.00 0.56 0.56 60 1007.0
20260509210524 17 213 6.4 8.0 0.00 0.56 0.56 61 1007.2
20260509210020 18 211 6.4 8.0 0.00 0.56 0.56 60 1007.0
20260509205514 18 225 9.7 12.9 0.00 0.56 0.56 61 1006.9
20260509205010 19 225 8.0 11.3 0.00 0.56 0.56 59 1006.8
20260509204507 19 240 6.4 11.3 0.00 0.56 0.56 60 1006.9
20260509204003 18 202 6.4 8.0 0.00 0.56 0.56 61 1007.0
20260509203459 20 217 6.4 9.7 0.00 0.56 0.56 61 1007.4
20260509202957 19 219 9.7 14.5 0.00 0.56 0.56 61 1007.2
20260509202452 18 225 8.0 9.7 0.00 0.56 0.56 61 1007.3
20260509201948 18 203 4.8 8.0 0.00 0.56 0.56 60 1007.7
20260509201443 18 172 6.4 8.0 0.00 0.56 0.56 62 1007.5
20260509200940 18 224 8.0 8.0 0.00 0.56 0.56 64 1007.7
20260509200440 18 254 6.4 8.0 0.00 0.56 0.56 63 1007.8
20260509195937 18 255 6.4 9.7 0.00 0.56 0.56 64 1007.8
20260509195427 18 243 4.8 8.0 0.00 0.56 0.56 65 1007.6
20260509194926 17 220 8.0 11.3 0.00 0.56 0.56 67 1007.9
20260509194417 17 208 14.5 16.1 0.00 0.56 0.56 67 1007.7
20260509193914 17 243 4.8 4.8 0.00 0.56 0.56 67 1007.9
20260509193413 17 198 6.4 8.0 0.00 0.56 0.56 69 1008.0
20260509192910 17 214 9.7 12.9 0.00 0.56 0.56 68 1007.9
20260509192406 16 227 9.7 11.3 0.00 0.56 0.56 70 1008.0
20260509191901 16 214 9.7 11.3 0.00 0.56 0.56 71 1008.0
20260509191357 16 219 6.4 8.0 0.00 0.56 0.56 71 1007.9
20260509190854 16 236 4.8 4.8 0.00 0.56 0.56 74 1008.0
20260509190350 16 209 4.8 4.8 0.00 0.56 0.56 74 1008.1
20260509185848 16 182 9.7 14.5 0.00 0.56 0.56 73 1008.3
20260509185344 16 249 1.6 1.6 0.00 0.56 0.56 75 1008.5
20260509184842 16 218 3.2 4.8 0.00 0.56 0.56 78 1008.3
20260509184339 16 253 4.8 8.0 0.00 0.56 0.56 77 1008.4
20260509183835 16 223 6.4 11.3 0.00 0.56 0.56 78 1008.3
20260509183331 16 236 9.7 12.9 0.00 0.56 0.56 76 1008.4
20260509182827 15 208 8.0 12.9 0.00 0.56 0.56 78 1008.5
20260509182324 15 245 4.8 4.8 0.00 0.56 0.56 80 1008.3
20260509181821 15 220 6.4 9.7 0.00 0.56 0.56 80 1008.5
20260509181318 15 172 6.4 14.5 0.00 0.56 0.56 80 1008.4
20260509180815 15 209 6.4 9.7 0.00 0.56 0.56 81 1008.5
20260509180312 15 186 6.4 9.7 0.00 0.56 0.56 81 1008.8
20260509175808 15 206 3.2 3.2 0.00 0.56 0.56 83 1008.7
20260509175307 15 218 3.2 4.8 0.00 0.56 0.56 81 1008.4
20260509174801 14 213 8.0 9.7 0.00 0.56 0.56 84 1008.4
20260509174256 15 235 1.6 1.6 0.00 0.56 0.56 84 1008.5
20260509173753 14 212 6.4 9.7 0.00 0.56 0.56 85 1008.5
20260509173248 14 217 1.6 1.6 0.00 0.56 0.56 85 1008.8
20260509172744 13 195 8.0 11.3 0.00 0.56 0.56 87 1008.6
20260509172241 13 204 1.6 3.2 0.00 0.56 0.56 91 1008.6
20260509171736 12 231 4.8 4.8 0.00 0.56 0.56 91 1008.8
20260509171233 12 205 3.2 4.8 0.00 0.56 0.56 91 1008.8
20260509170730 13 217 8.0 9.7 0.00 0.56 0.56 91 1008.8
20260509170226 12 202 1.6 3.2 0.00 0.56 0.56 91 1008.8
20260509165724 12 264 4.8 8.0 0.00 0.56 0.56 91 1009.0
20260509165220 12 217 6.4 8.0 0.00 0.56 0.56 92 1008.8
20260509164716 12 176 6.4 8.0 0.00 0.56 0.56 93 1008.7
20260509164212 12 221 4.8 4.8 0.00 0.56 0.56 93 1008.9
20260509163709 12 231 3.2 4.8 0.00 0.56 0.56 93 1008.7
20260509163206 12 221 8.0 8.0 0.00 0.56 0.56 94 1009.0
20260509162703 12 227 1.6 3.2 0.18 0.56 0.56 95 1008.6
20260509162159 12 214 6.4 8.0 0.18 0.56 0.56 95 1008.6
20260509161654 11 288 3.2 3.2 0.00 0.53 0.53 96 1008.5
20260509161150 11 176 6.4 8.0 0.00 0.53 0.53 97 1008.6
20260509160646 11 211 3.2 3.2 0.00 0.53 0.53 97 1008.6
20260509160141 11 232 3.2 3.2 0.00 0.53 0.53 97 1008.6
20260509155638 11 225 4.8 4.8 0.00 0.53 0.53 97 1008.4
20260509155134 11 192 3.2 3.2 0.00 0.53 0.53 97 1008.7
20260509154630 11 205 3.2 3.2 0.00 0.53 0.53 97 1008.3
20260509154127 11 213 6.4 8.0 0.00 0.53 0.53 97 1008.2
20260509153625 11 217 8.0 9.7 0.00 0.53 0.53 97 1008.6
20260509153121 11 235 4.8 8.0 0.00 0.53 0.53 98 1008.2
20260509152617 11 230 6.4 8.0 0.00 0.53 0.53 98 1008.5
20260509152115 11 220 3.2 3.2 0.00 0.53 0.53 98 1008.4
20260509151611 10 201 6.4 8.0 0.00 0.53 0.53 98 1008.4
20260509151109 10 201 8.0 9.7 0.00 0.53 0.53 98 1008.3
20260509150606 10 248 3.2 4.8 0.00 0.53 0.53 98 1008.4
20260509150104 10 213 4.8 4.8 0.00 0.53 0.53 98 1008.3
20260509145600 10 227 8.0 9.7 0.00 0.53 0.53 98 1008.5
20260509145055 10 222 4.8 8.0 0.00 0.53 0.53 98 1008.4
20260509144552 10 181 6.4 8.0 0.00 0.53 0.53 98 1008.3
20260509144049 10 213 6.4 9.7 0.00 0.53 0.53 98 1008.7
20260509143546 10 211 6.4 8.0 0.00 0.53 0.53 98 1008.6
20260509143044 10 218 3.2 4.8 0.00 0.53 0.53 98 1008.7
20260509142539 10 229 1.6 3.2 0.00 0.53 0.53 98 1008.5
20260509142035 10 210 6.4 8.0 0.00 0.53 0.53 98 1008.5
20260509141532 10 275 3.2 3.2 0.00 0.53 0.53 98 1008.5
20260509141028 10 248 1.6 3.2 0.13 0.53 0.53 98 1008.7
20260509140525 10 221 3.2 4.8 0.13 0.53 0.53 98 1008.5
20260509140023 10 229 11.3 12.9 0.00 0.51 0.51 98 1008.5
20260509135520 10 245 1.6 1.6 0.18 0.51 0.51 98 1008.7
20260509135017 10 195 6.4 8.0 0.18 0.51 0.51 98 1008.7
20260509134515 10 214 4.8 4.8 0.00 0.48 0.48 98 1008.6
20260509134012 10 194 9.7 11.3 0.00 0.48 0.48 98 1008.8
20260509133508 10 258 4.8 4.8 0.00 0.48 0.48 98 1008.7
20260509133007 10 228 1.6 3.2 0.00 0.48 0.48 99 1008.5
20260509132505 10 185 4.8 8.0 0.00 0.48 0.48 99 1008.8
20260509132002 10 231 11.3 11.3 0.00 0.48 0.48 99 1008.3
20260509131458 10 223 4.8 4.8 0.00 0.48 0.48 99 1008.7
20260509130955 10 215 3.2 3.2 0.00 0.48 0.48 99 1008.6
20260509130450 10 223 4.8 4.8 0.00 0.48 0.48 99 1008.8
20260509125948 10 215 6.4 9.7 0.00 0.48 0.48 99 1008.6
20260509125444 10 226 6.4 8.0 0.13 0.48 0.48 99 1008.5
20260509124940 9 216 3.2 3.2 0.13 0.48 0.48 99 1008.7
20260509124438 9 220 1.6 3.2 0.13 0.48 0.48 99 1008.8
20260509123935 9 211 4.8 8.0 0.00 0.46 0.46 99 1008.8
20260509123432 9 217 1.6 1.6 0.00 0.46 0.46 99 1008.6
20260509122928 9 245 4.8 8.0 0.00 0.46 0.46 99 1008.9
20260509122425 9 191 4.8 9.7 0.00 0.46 0.46 99 1008.6
20260509121922 9 208 3.2 3.2 0.00 0.46 0.46 99 1008.8
20260509121419 9 219 4.8 8.0 0.00 0.46 0.46 99 1009.0
20260509120917 8 216 4.8 4.8 0.00 0.46 0.46 99 1008.9
20260509120414 8 219 3.2 3.2 0.00 0.46 0.46 99 1008.9
20260509115912 8 236 6.4 8.0 0.00 0.46 0.46 99 1009.2
20260509115409 8 214 6.4 9.7 0.00 0.46 0.46 99 1008.8
20260509114907 8 214 6.4 8.0 0.18 0.46 0.46 99 1008.9
20260509114405 8 218 6.4 8.0 0.18 0.46 0.46 99 1008.8
20260509113905 8 208 3.2 4.8 0.00 0.43 0.43 99 1008.9
20260509113401 8 232 4.8 4.8 0.13 0.43 0.43 99 1008.9
20260509112857 8 200 4.8 4.8 0.13 0.43 0.43 99 1008.9
20260509112355 8 189 4.8 4.8 0.00 0.41 0.41 99 1008.9
20260509111852 8 245 1.6 1.6 0.00 0.41 0.41 99 1008.9
20260509111348 8 208 1.6 1.6 0.00 0.41 0.41 99 1009.0
20260509110847 8 203 4.8 4.8 0.00 0.41 0.41 99 1008.7
20260509110342 8 238 4.8 4.8 0.00 0.41 0.41 99 1008.6
20260509105841 8 230 1.6 1.6 0.00 0.41 0.41 99 1008.8
20260509105339 8 223 1.6 1.6 0.18 0.41 0.41 99 1008.9
20260509104835 8 223 3.2 3.2 0.18 0.41 0.41 99 1008.9
20260509104332 8 229 1.6 1.6 0.18 0.41 0.41 99 1009.0
20260509103829 8 225 1.6 1.6 0.00 0.38 0.38 99 1008.7
20260509103327 8 228 1.6 1.6 0.00 0.38 0.38 99 1009.1
20260509102826 8 227 1.6 1.6 0.13 0.38 0.38 99 1008.9
20260509102322 8 229 3.2 3.2 0.13 0.38 0.38 99 1008.9
20260509101818 8 224 1.6 1.6 0.18 0.36 0.36 99 1008.8
20260509101314 8 242 0.0 1.6 0.18 0.36 0.36 99 1009.0
20260509100812 8 243 0.0 0.0 0.13 0.33 0.33 99 1009.2
20260509100309 8 231 0.0 0.0 0.30 0.33 0.33 99 1009.3
20260509095806 8 231 0.0 0.0 0.18 0.30 0.30 99 1009.2
20260509095305 8 231 0.0 0.0 0.00 0.28 0.28 99 1009.2
20260509094800 8 231 0.0 0.0 0.18 0.28 0.28 99 1009.2
20260509094256 8 231 0.0 0.0 0.18 0.28 0.28 99 1009.0
20260509093754 8 230 0.0 1.6 0.00 0.25 0.25 99 1009.4
20260509093251 8 236 0.0 0.0 0.13 0.25 0.25 99 1009.3
20260509092750 8 237 0.0 0.0 0.13 0.25 0.25 99 1009.3
20260509092247 8 232 1.6 1.6 0.00 0.23 0.23 99 1009.4
20260509091745 8 224 1.6 1.6 0.18 0.23 0.23 99 1009.4
20260509091241 8 224 1.6 3.2 0.18 0.23 0.23 99 1009.3
20260509090739 8 237 1.6 1.6 0.00 0.20 0.20 99 1009.5
20260509090236 8 238 0.0 0.0 0.13 0.20 0.20 99 1009.2
20260509085734 8 238 0.0 0.0 0.13 0.20 0.20 99 1009.3
20260509085231 8 238 0.0 0.0 0.18 0.18 0.18 99 1009.5
20260509084727 8 237 0.0 0.0 0.18 0.18 0.18 99 1009.8
20260509084224 8 238 0.0 0.0 0.13 0.15 0.15 99 1010.0
20260509083722 8 238 0.0 0.0 0.13 0.15 0.15 99 1009.7
20260509083219 8 238 0.0 0.0 0.00 0.13 0.13 99 1009.8
20260509082715 8 238 0.0 0.0 0.00 0.13 0.13 99 1009.8
20260509082212 8 238 0.0 0.0 0.18 0.13 0.13 99 1009.8
20260509081709 8 237 0.0 0.0 0.18 0.13 0.13 99 1009.7
20260509081206 8 237 0.0 0.0 0.00 0.10 0.10 99 1009.7
20260509080704 8 237 0.0 0.0 0.00 0.10 0.10 99 1009.7
20260509080202 8 237 0.0 0.0 0.13 0.10 0.10 99 1009.7
20260509075700 8 237 0.0 0.0 0.13 0.10 0.10 99 1009.7
20260509075157 8 237 0.0 0.0 0.00 0.08 0.08 99 1009.6
20260509074654 8 237 0.0 0.0 0.00 0.08 0.08 99 1010.0
20260509074150 8 237 0.0 0.0 0.00 0.08 0.08 99 1009.6
20260509073647 8 237 0.0 1.6 0.00 0.08 0.08 99 1009.7
20260509073144 8 231 1.6 1.6 0.00 0.08 0.08 99 1009.8
20260509072641 8 252 0.0 0.0 0.00 0.08 0.08 99 1009.6
20260509072137 8 256 0.0 0.0 0.00 0.08 0.08 99 1009.5
20260509071634 8 261 0.0 1.6 0.00 0.08 0.08 99 1009.4
20260509071131 8 217 0.0 0.0 0.00 0.08 0.08 99 1009.4
20260509070628 8 243 0.0 1.6 0.00 0.08 0.08 99 1009.6
20260509070125 8 243 0.0 0.0 0.00 0.08 0.08 99 1009.3
20260509065620 8 258 1.6 1.6 0.00 0.08 0.08 99 1009.3
20260509065116 8 264 0.0 0.0 0.00 0.08 0.08 99 1009.3
20260509064614 8 264 0.0 0.0 0.00 0.08 0.08 99 1009.5
20260509064112 8 264 0.0 0.0 0.00 0.08 0.08 99 1009.6
20260509063608 8 265 0.0 0.0 0.00 0.08 0.08 99 1009.8
20260509063105 8 264 0.0 0.0 0.00 0.08 0.08 99 1009.8
20260509062602 8 264 0.0 0.0 0.00 0.08 0.08 99 1010.1
20260509062059 8 264 0.0 0.0 0.00 0.08 0.08 99 1010.0
20260509061556 8 264 0.0 1.6 0.00 0.08 0.08 99 1010.1
20260509061053 8 264 0.0 0.0 0.00 0.08 0.08 99 1010.3
20260509060551 8 264 0.0 0.0 0.00 0.08 0.08 99 1010.3
20260509060046 8 265 0.0 0.0 0.00 0.08 0.08 99 1010.6
20260509055542 8 265 0.0 0.0 0.00 0.08 0.08 99 1010.5
20260509055038 8 266 1.6 1.6 0.00 0.08 0.08 99 1010.4
20260509054535 8 250 0.0 0.0 0.00 0.08 0.08 99 1010.7
20260509054033 8 250 0.0 0.0 0.00 0.08 0.08 99 1010.8
20260509053532 8 248 0.0 0.0 0.00 0.08 0.08 99 1010.8
20260509053028 8 248 1.6 1.6 0.00 0.08 0.08 99 1010.8
20260509052526 8 267 0.0 0.0 0.00 0.08 0.08 99 1010.9
20260509052024 8 259 0.0 0.0 0.00 0.08 0.08 99 1011.0
20260509051521 8 243 0.0 0.0 0.00 0.08 0.08 99 1011.0
20260509051018 8 243 0.0 0.0 0.00 0.08 0.08 99 1011.0
20260509050515 8 234 0.0 0.0 0.00 0.08 0.08 98 1010.9
20260509050012 8 221 0.0 0.0 0.18 0.08 0.08 98 1011.1
20260509045509 8 222 0.0 0.0 0.18 0.08 0.08 98 1011.3
20260509045006 8 221 0.0 0.0 0.00 0.05 0.05 98 1011.3
20260509044504 8 221 0.0 0.0 0.00 0.05 0.05 98 1011.3
20260509044001 8 221 0.0 0.0 0.00 0.05 0.05 98 1011.3
20260509043456 8 221 0.0 0.0 0.13 0.05 0.05 98 1011.5
20260509042951 8 221 0.0 0.0 0.13 0.05 0.05 98 1011.6
20260509042449 8 221 0.0 0.0 0.00 0.03 0.03 98 1011.5
20260509041945 8 221 1.6 1.6 0.00 0.03 0.03 98 1011.8
20260509041442 8 221 0.0 0.0 0.18 0.03 0.03 98 1011.5
20260509040940 8 221 0.0 0.0 0.18 0.03 0.03 98 1011.8
20260509040438 8 221 0.0 0.0 0.00 0.00 0.00 98 1011.7
20260509035934 8 218 1.6 1.6 0.00 0.38 0.38 98 1012.0
20260509035431 8 224 0.0 0.0 0.13 0.38 0.38 98 1012.1
20260509034927 8 224 0.0 0.0 0.13 0.38 0.38 98 1012.0
20260509034426 8 224 0.0 1.6 0.13 0.38 0.38 98 1012.1
20260509033922 8 225 0.0 1.6 0.00 0.36 0.36 98 1012.1
20260509033419 8 224 1.6 1.6 0.18 0.36 0.36 98 1012.3
20260509032916 8 226 0.0 1.6 0.18 0.36 0.36 98 1012.0
20260509032413 8 223 1.6 3.2 0.00 0.33 0.33 98 1012.2
20260509031911 8 217 1.6 3.2 0.00 0.33 0.33 98 1012.2
20260509031408 8 229 3.2 3.2 0.18 0.33 0.33 98 1012.1
20260509030906 8 225 1.6 1.6 0.18 0.33 0.33 98 1012.1
20260509030404 8 235 1.6 1.6 0.18 0.33 0.33 98 1012.4
20260509025901 8 235 0.0 1.6 0.13 0.30 0.30 98 1012.5
20260509025356 8 232 1.6 3.2 0.13 0.30 0.30 98 1012.6
20260509024851 8 229 1.6 1.6 0.00 0.28 0.28 97 1012.6
20260509024348 8 235 0.0 0.0 0.00 0.28 0.28 97 1012.5
20260509023845 8 232 0.0 1.6 0.18 0.28 0.28 97 1012.8
20260509023342 8 237 0.0 0.0 0.30 0.28 0.28 97 1012.6
20260509022838 8 244 0.0 0.0 0.13 0.25 0.25 97 1013.3
20260509022336 8 248 0.0 1.6 0.18 0.23 0.23 97 1013.1
20260509021833 8 269 0.0 0.0 0.18 0.23 0.23 97 1012.8
20260509021330 8 280 3.2 3.2 0.13 0.20 0.20 97 1012.2
20260509020827 8 267 1.6 1.6 0.13 0.20 0.20 97 1012.0
20260509020325 8 222 3.2 3.2 0.00 0.18 0.18 97 1011.7
20260509015823 8 217 0.0 0.0 0.00 0.18 0.18 97 1012.3
20260509015320 8 220 1.6 1.6 0.00 0.18 0.18 97 1011.9
20260509014817 8 227 0.0 0.0 0.18 0.18 0.18 96 1012.2
20260509014314 8 227 0.0 0.0 0.18 0.18 0.18 96 1011.8
20260509013811 8 80 0.0 0.0 0.18 0.18 0.18 96 1011.9
20260509013307 9 234 0.0 0.0 0.00 0.15 0.15 96 1012.0
20260509012803 9 246 0.0 0.0 0.00 0.15 0.15 96 1012.0
20260509012300 9 248 0.0 0.0 0.00 0.15 0.15 96 1012.0
20260509011757 9 239 0.0 0.0 0.00 0.15 0.15 96 1012.0
20260509011254 9 230 0.0 0.0 0.00 0.15 0.15 96 1011.8
20260509010752 9 257 1.6 1.6 0.00 0.15 0.15 96 1011.7
20260509010249 9 224 1.6 1.6 0.00 0.15 0.15 95 1011.9
20260509005746 9 215 1.6 3.2 0.00 0.15 0.15 95 1011.2
20260509005243 9 226 1.6 1.6 0.00 0.15 0.15 95 1011.5
20260509004738 9 217 3.2 3.2 0.00 0.15 0.15 95 1011.2
20260509004235 9 222 3.2 3.2 0.00 0.15 0.15 94 1011.3
20260509003733 9 337 0.0 0.0 0.00 0.15 0.15 94 1011.5
20260509003230 9 316 3.2 3.2 0.13 0.15 0.15 94 1011.4
20260509002728 9 225 1.6 1.6 0.13 0.15 0.15 94 1011.4
20260509002225 9 319 0.0 0.0 0.00 0.13 0.13 94 1011.3
20260509001723 9 248 0.0 0.0 0.00 0.13 0.13 94 1011.3
20260509001218 9 259 0.0 0.0 0.00 0.13 0.13 94 1011.4
20260509000717 10 260 0.0 1.6 0.00 0.13 0.13 93 1011.4
20260509000213 10 225 3.2 3.2 0.00 0.13 0.13 93 1011.5
20260508235710 9 234 0.0 0.0 0.00 0.13 0.13 93 1010.9
20260508235206 10 234 1.6 1.6 0.00 0.13 0.13 93 1010.9
20260508234704 10 234 1.6 1.6 0.00 0.13 0.13 93 1011.0
20260508234201 10 241 1.6 1.6 0.00 0.13 0.13 92 1010.8
20260508233700 10 240 1.6 1.6 0.00 0.13 0.13 92 1010.8
20260508233157 10 241 1.6 1.6 0.00 0.13 0.13 91 1010.7
20260508232655 10 230 1.6 1.6 0.00 0.13 0.13 89 1010.8
20260508232151 10 244 0.0 0.0 0.00 0.13 0.13 86 1010.8
20260508231649 10 226 1.6 1.6 0.00 0.13 0.13 87 1011.2
20260508231145 10 265 0.0 0.0 0.00 0.13 0.13 86 1011.0
20260508230642 10 232 3.2 3.2 0.00 0.13 0.13 87 1011.4
20260508230138 10 263 0.0 0.0 0.00 0.13 0.13 86 1011.3
20260508225637 10 284 1.6 1.6 0.00 0.13 0.13 86 1011.4
20260508225132 10 262 0.0 0.0 0.00 0.13 0.13 86 1011.3
20260508224630 10 220 0.0 0.0 0.00 0.13 0.13 86 1011.4
20260508224128 10 227 1.6 3.2 0.00 0.13 0.13 85 1011.2
20260508223626 10 238 6.4 8.0 0.00 0.13 0.13 84 1011.2
20260508223122 10 206 3.2 4.8 0.00 0.13 0.13 83 1011.3
20260508222620 10 212 3.2 4.8 0.00 0.13 0.13 82 1011.4
20260508222117 11 305 3.2 3.2 0.00 0.13 0.13 82 1011.3
20260508221613 11 216 4.8 4.8 0.00 0.13 0.13 80 1011.2
20260508221109 11 219 11.3 12.9 0.00 0.13 0.13 79 1011.3
20260508220606 11 222 6.4 8.0 0.00 0.13 0.13 80 1011.6
20260508215559 11 210 6.4 8.0 0.00 0.13 0.13 78 1011.7
20260508215055 11 230 3.2 4.8 0.00 0.13 0.13 79 1011.6
20260508214553 11 213 4.8 4.8 0.00 0.13 0.13 77 1011.6
20260508214049 11 228 4.8 4.8 0.00 0.13 0.13 77 1011.6
20260508213547 11 237 4.8 4.8 0.00 0.13 0.13 75 1011.7